User: anonymous   Login
Location: Unspecified
(0.0000°N, 0.0000°E)
Time: 23:04:47
(UTC+00:00)
Language:

STARLINK-2591 - Orbit

View from above orbital plane
View from above orbital plane
View from above satellite
View from above satellite

Ground track
Ground track

The orbit is defined by the following mean orbital elements,

1 48361U          26145.32036601 +.00000000 +00000-0 +90366-4 0 00002
2 48361  53.1620   1.7336 0001201  93.1096 267.0043 15.31698008    06
Epoch (UTC): 25 May 2026 07:41:19
Eccentricity: 0.0001201
inclination: 53.1620°
perigee height: 470 km
apogee height: 472 km
right ascension of ascending node: 1.7336°
argument of perigee: 93.1096°
revolutions per day: 15.31698008
mean anomaly at epoch: 267.0043°

The dashed part of the orbit path shows where the satellite is in the earth's shadow,  

DLR